Lihue, HI

8:13 AM HST on April 28, 2017 (GMT -1000)
Lihue

Weather History for PHLI - February, 2013

Change the Weather History Date:

Monday, February 11, 2013

  Actual Average Record
Temperature  
Mean Temperature 73 °F 72 °F  
Max Temperature 75 °F 78 °F 85 °F (1958)
Min Temperature 70 °F 65 °F 56 °F (1963)
Degree Days  
Heating Degree Days 0 0  
Month to date heating degree days 0 0  
Since 1 July heating degree days 0 0  
Cooling Degree Days 8 7  
Month to date cooling degree days 81 77  
Year to date cooling degree days 274 286  
Growing Degree Days 22 (Base 50)    
Moisture  
Dew Point 64 °F    
Average Humidity 75    
Maximum Humidity 84    
Minimum Humidity 66    
Precipitation  
Precipitation 0.02 in 0.11 in 4.13 in (2017)
Month to date precipitation 0.17 1.22  
Year to date precipitation 6.05 4.97  
Snow  
Snow 0.00 in - - ()
Month to date snowfall 0.0  
Since 1 July snowfall 0.0  
Snow Depth 0.00 in    
Sea Level Pressure  
Sea Level Pressure 30.22 in    
Wind  
Wind Speed 17 mph (NE)    
Max Wind Speed 23 mph    
Max Gust Speed 28 mph    
Visibility 10 miles    
Events Rain    
T = Trace of Precipitation, MM = Missing Value Source: NWS Daily Summary

Daily Weather History Graph

Daily Weather History Graph

Search for Another Location

Airport or City:

Trip Planner

Search our weather history database for the weather conditions in past years. The results will help you decide how hot, cold, wet, or windy it might be!

Date:

Astronomy

Feb. 11, 2013 Rise Set
Actual Time 7:10 AM HST 6:32 PM HST
Civil Twilight 6:47 AM HST 6:55 PM HST
Nautical Twilight 6:21 AM HST 7:22 PM HST
Astronomical Twilight 5:55 AM HST 7:48 PM HST
Moon 8:00 AM HST (2/11) 8:18 PM HST (2/11)
Length of Visible Light 12h 08m
Length of Day
11h 22m
Waxing Crescent, 3% of the Moon is Illuminated
Feb 11
Waxing Crescent
Feb 17
First Quarter
Feb 25
Full
Mar 4
Last Quarter
Mar 11
New

Hourly Weather History & Observations

Time (HST) Temp. Dew Point Humidity Pressure Visibility Wind Dir Wind Speed Gust Speed Precip Events Conditions
12:53 AM 71.1 °F 64.9 °F 81% 30.24 in 10.0 mi NE 15.0 mph - N/A   Scattered Clouds
1:53 AM 71.1 °F 64.0 °F 78% 30.22 in 10.0 mi ENE 19.6 mph 24.2 mph 0.00 in Rain Light Rain
2:53 AM 71.1 °F 64.9 °F 81% 30.21 in 10.0 mi ENE 17.3 mph - 0.00 in   Scattered Clouds
3:53 AM 71.1 °F 64.0 °F 78% 30.20 in 10.0 mi ENE 15.0 mph - N/A   Partly Cloudy
4:45 AM 71.6 °F 64.4 °F 78% 30.20 in 10.0 mi ENE 19.6 mph 24.2 mph N/A   Mostly Cloudy
4:53 AM 71.1 °F 64.9 °F 81% 30.20 in 10.0 mi ENE 18.4 mph - N/A   Scattered Clouds
5:33 AM 71.6 °F 64.4 °F 78% 30.21 in 10.0 mi ENE 17.3 mph - N/A   Mostly Cloudy
5:53 AM 71.1 °F 64.9 °F 81% 30.21 in 10.0 mi NE 18.4 mph - N/A   Mostly Cloudy
6:17 AM 71.6 °F 64.4 °F 78% 30.21 in 10.0 mi ENE 16.1 mph - N/A   Scattered Clouds
6:53 AM 71.1 °F 64.9 °F 81% 30.22 in 10.0 mi ENE 17.3 mph - N/A   Partly Cloudy
7:29 AM 71.6 °F 64.4 °F 78% 30.23 in 10.0 mi NE 17.3 mph - N/A   Mostly Cloudy
7:45 AM 71.6 °F 64.4 °F 78% 30.23 in 10.0 mi ENE 16.1 mph - N/A   Scattered Clouds
7:53 AM 71.1 °F 64.9 °F 81% 30.23 in 10.0 mi ENE 17.3 mph - N/A   Scattered Clouds
8:51 AM 71.6 °F 64.4 °F 78% 30.25 in 5.0 mi NE 16.1 mph 25.3 mph 0.00 in Rain Light Rain
8:53 AM 71.1 °F 64.9 °F 81% 30.25 in 5.0 mi NE 12.7 mph - 0.00 in Rain Light Rain
9:07 AM 71.6 °F 64.4 °F 78% 30.25 in 10.0 mi NE 13.8 mph - 0.00 in   Scattered Clouds
9:40 AM 73.4 °F 66.2 °F 78% 30.26 in 8.0 mi NE 11.5 mph - 0.00 in   Mostly Cloudy
9:53 AM 72.0 °F 64.9 °F 78% 30.26 in 10.0 mi NE 16.1 mph - 0.00 in   Overcast
10:18 AM 71.6 °F 64.4 °F 78% 30.27 in 2.5 mi ENE 18.4 mph 25.3 mph 0.00 in Rain Heavy Rain
10:31 AM 71.6 °F 66.2 °F 83% 30.27 in 10.0 mi ENE 20.7 mph - 0.02 in   Overcast
10:38 AM 71.6 °F 64.4 °F 78% 30.27 in 9.0 mi NE 15.0 mph 24.2 mph 0.02 in   Overcast
10:53 AM 72.0 °F 66.0 °F 81% 30.27 in 10.0 mi NE 18.4 mph - 0.02 in   Overcast
11:26 AM 71.6 °F 64.4 °F 78% 30.26 in 10.0 mi NE 15.0 mph - N/A   Overcast
11:48 AM 73.4 °F 66.2 °F 78% 30.26 in 10.0 mi NE 18.4 mph - 0.00 in   Overcast
11:53 AM 73.0 °F 64.9 °F 76% 30.25 in 10.0 mi NE 16.1 mph - 0.00 in   Overcast
12:53 PM 72.0 °F 66.0 °F 81% 30.23 in 10.0 mi ENE 13.8 mph - 0.00 in   Overcast
1:03 PM 73.4 °F 66.2 °F 78% 30.22 in 10.0 mi ENE 16.1 mph - N/A   Overcast
1:53 PM 73.0 °F 64.0 °F 73% 30.19 in 10.0 mi NE 17.3 mph - N/A   Overcast
2:08 PM 73.4 °F 62.6 °F 69% 30.19 in 10.0 mi NE 20.7 mph - N/A   Overcast
2:53 PM 73.0 °F 64.0 °F 73% 30.18 in 10.0 mi NE 18.4 mph - 0.00 in   Overcast
3:01 PM 73.4 °F 64.4 °F 73% 30.18 in 10.0 mi NE 17.3 mph - N/A   Overcast
3:33 PM 73.4 °F 62.6 °F 69% 30.18 in 10.0 mi NE 18.4 mph - N/A   Overcast
3:53 PM 73.9 °F 63.0 °F 68% 30.17 in 10.0 mi NE 18.4 mph - N/A   Overcast
4:53 PM 72.0 °F 61.0 °F 68% 30.18 in 10.0 mi NNE 16.1 mph - N/A   Mostly Cloudy
5:53 PM 72.0 °F 61.0 °F 68% 30.19 in 10.0 mi NE 18.4 mph - N/A   Overcast
6:53 PM 71.1 °F 60.1 °F 68% 30.20 in 10.0 mi NE 20.7 mph - N/A   Overcast
7:53 PM 71.1 °F 61.0 °F 70% 30.22 in 10.0 mi NE 18.4 mph - N/A   Overcast
8:53 PM 71.1 °F 61.0 °F 70% 30.23 in 10.0 mi NE 18.4 mph 27.6 mph N/A   Overcast
9:53 PM 71.1 °F 61.0 °F 70% 30.25 in 10.0 mi NE 19.6 mph - N/A   Overcast
10:53 PM 71.1 °F 59.0 °F 66% 30.24 in 10.0 mi NE 19.6 mph - N/A   Overcast
11:53 PM 71.1 °F 59.0 °F 66% 30.24 in 10.0 mi NE 17.3 mph - N/A   Overcast